Window Rock, AZ

2:10 AM MDT on September 26, 2017 (GMT -0600)
Window Rock

Weather History for KRQE - January, 2014

Change the Weather History Date:

Friday, January 24, 2014

  Actual Average Record
Temperature  
Mean Temperature 30 °F -  
Max Temperature 50 °F 44 °F 59 °F (1981)
Min Temperature 9 °F 12 °F -7 °F (1964)
Degree Days  
Heating Degree Days 36    
Moisture  
Dew Point 8 °F    
Average Humidity 52    
Maximum Humidity 77    
Minimum Humidity 16    
Precipitation  
Precipitation 0.00 in - - ()
Sea Level Pressure  
Sea Level Pressure 30.46 in    
Wind  
Wind Speed 2 mph (East)    
Max Wind Speed 8 mph    
Max Gust Speed -    
Visibility 10 miles    
Events      
Averages and records for this station are not official NWS values.
T = Trace of Precipitation, MM = Missing Value Source: NWS Daily Summary

Daily Weather History Graph

Daily Weather History Graph

Search for Another Location

Airport or City:

Trip Planner

Search our weather history database for the weather conditions in past years. The results will help you decide how hot, cold, wet, or windy it might be!

Date:

Astronomy

Jan. 24, 2014 Rise Set
Actual Time 7:21 AM MST 5:35 PM MST
Civil Twilight 6:54 AM MST 6:02 PM MST
Nautical Twilight 6:23 AM MST 6:33 PM MST
Astronomical Twilight 5:53 AM MST 7:04 PM MST
Moon 12:55 AM MST (1/24) 11:54 AM MST (1/24)
Length of Visible Light 11h 08m
Length of Day
10h 14m
Last Quarter, 44% of the Moon is Illuminated
Jan 24
Last Quarter
Jan 30
New
Feb 6
First Quarter
Feb 14
Full
Feb 22
Last Quarter

Hourly Weather History & Observations

Time (MST) Temp. Windchill Dew Point Humidity Pressure Visibility Wind Dir Wind Speed Gust Speed Precip Events Conditions
12:53 AM 15.1 °F 7.7 °F 7.0 °F 70% 30.43 in 10.0 mi North 4.6 mph - N/A   Clear
1:53 AM 12.0 °F - 5.0 °F 73% 30.44 in 10.0 mi Calm Calm - N/A   Clear
2:53 AM 12.9 °F - 6.1 °F 74% 30.45 in 10.0 mi Calm Calm - N/A   Clear
3:53 AM 12.0 °F - 3.9 °F 70% 30.47 in 10.0 mi Calm Calm - N/A   Clear
4:53 AM 9.0 °F - 3.0 °F 77% 30.50 in 10.0 mi Calm Calm - N/A   Clear
5:53 AM 10.9 °F - 5.0 °F 77% 30.51 in 10.0 mi Calm Calm - N/A   Clear
6:53 AM 10.0 °F - 3.9 °F 76% 30.55 in 10.0 mi Calm Calm - N/A   Clear
7:53 AM 9.0 °F 2.4 °F 3.0 °F 77% 30.56 in 10.0 mi South 3.5 mph - N/A   Clear
8:53 AM 18.0 °F 12.7 °F 10.0 °F 71% 30.53 in 10.0 mi SSW 3.5 mph - N/A   Clear
9:53 AM 27.0 °F - 12.9 °F 56% 30.54 in 10.0 mi Calm Calm - N/A   Clear
10:53 AM 37.9 °F - 14.0 °F 38% 30.50 in 10.0 mi Calm Calm - N/A   Clear
11:53 AM 43.0 °F - 12.9 °F 30% 30.47 in 10.0 mi Calm Calm - N/A   Clear
12:53 PM 46.0 °F 43.9 °F 10.0 °F 23% 30.43 in 10.0 mi Variable 4.6 mph - N/A   Clear
1:53 PM 48.9 °F - 6.1 °F 18% 30.39 in 10.0 mi Calm Calm - N/A   Clear
2:53 PM 48.9 °F - 6.1 °F 18% 30.38 in 10.0 mi Calm Calm - N/A   Clear
3:53 PM 50.0 °F - 5.0 °F 16% 30.37 in 10.0 mi Calm Calm - N/A   Clear
4:53 PM 46.0 °F 43.9 °F 8.1 °F 21% 30.39 in 10.0 mi South 4.6 mph - N/A   Clear
5:53 PM 39.9 °F 34.5 °F 10.9 °F 31% 30.42 in 10.0 mi East 8.1 mph - N/A   Clear
6:53 PM 34.0 °F 31.0 °F 10.0 °F 37% 30.48 in 10.0 mi NE 3.5 mph - N/A   Clear
7:53 PM 30.0 °F 26.5 °F 10.9 °F 45% 30.49 in 10.0 mi NE 3.5 mph - N/A   Clear
8:53 PM 21.9 °F - 8.1 °F 55% 30.50 in 10.0 mi Calm Calm - N/A   Clear
9:53 PM 19.0 °F - 7.0 °F 59% 30.47 in 10.0 mi Calm Calm - N/A   Clear
10:53 PM 17.1 °F - 7.0 °F 65% 30.43 in 10.0 mi Calm Calm - N/A   Clear
11:53 PM 17.1 °F 11.7 °F 6.1 °F 62% 30.42 in 10.0 mi NNE 3.5 mph - N/A   Clear